User: anonymous   Login
Location: Caltech
(34.1382°N, 118.1253°W)
Time: 08:25:12
(UTC-08:00)
Language:

Oscar 10/S400 - Orbit

View from above orbital plane
View from above orbital plane
View from above satellite
View from above satellite

Ground track
Ground track

The orbit data is extracted from the following two-line orbital elements,

1 14129U 83058B   14320.28685918 -.00000268  00000-0  00000+0 0  2391
2 14129 025.9889 190.0126 6046783 047.1038 150.4607 02.05872130208377
Epoch (UTC): 16 November 2014 06:53:04
Eccentricity: 0.6046783
inclination: 25.9889°
perigee height: 3940 km
apogee height: 35506 km
right ascension of ascending node: 190.0126°
argument of perigee: 47.1038°
revolutions per day: 2.05872130
mean anomaly at epoch: 150.4607°
orbit number at epoch: 20837

The dashed part of the orbit path shows where the satellite is in the earth's shadow,  

DLR